Theta_e
328 329 329 330 330 330 330 330 330 329 329 330 328 328 329 330 330 330 333 334 333 332 332 332 331 331 331 330 330 332 332 332 332 332 332 332 332 331 331 330 330 330 329 329 328 329 326 325 325 325 325 325 323 322 322 322 323 323 323 324 322 319 318 319 319 320 320 321 319 320 320 324 324 323 322 322 320 318 318 318 318 316 316 314 314
328 327 328 329 329 329 329 329 330 328 328 328 328 328 329 330 330 331 333 333 333 332 332 331 331 331 330 330 331 331 331 330 329 331 331 330 329 328 328 327 327 327 327 326 325 324 323 323 323 323 323 323 323 323 323 323 320 320 320 321 321 319 316 317 316 319 317 316 317 317 317 319 321 320 321 320 319 317 316 315 316 315 314 313 312
326 326 327 328 328 329 329 329 330 329 327 326 327 329 330 330 331 332 332 332 331 332 330 329 328 331 331 332 331 330 332 332 330 329 328 325 325 325 325 325 325 325 325 325 323 322 322 321 321 321 322 324 320 319 319 318 318 318 318 319 318 318 317 317 315 317 315 316 316 316 312 314 317 317 318 319 317 316 314 313 314 314 313 312 309
323 325 325 327 328 328 329 328 329 329 327 326 329 330 331 331 331 331 332 331 331 332 331 330 331 332 333 332 332 331 328 329 327 326 325 323 322 323 323 323 323 323 323 324 322 322 321 320 320 320 320 321 319 317 317 316 316 317 317 318 317 314 313 313 315 314 314 315 313 313 313 312 310 312 312 316 317 314 313 311 311 312 313 311 308
323 324 325 326 326 327 328 328 329 328 328 329 330 330 331 331 331 331 331 331 332 332 331 332 332 331 331 330 330 328 328 326 324 322 323 323 321 320 320 321 321 321 321 321 321 320 320 319 319 318 318 318 318 316 315 315 315 315 315 315 314 312 311 311 313 313 312 316 315 313 310 309 308 310 311 312 314 315 312 310 309 308 310 309 306
324 324 325 326 327 327 328 328 328 328 329 330 331 332 332 332 332 331 331 332 332 331 331 331 330 329 327 326 324 324 322 322 320 319 318 318 317 319 320 320 320 319 319 319 320 319 318 318 318 317 316 316 316 315 315 314 314 314 314 313 312 312 311 309 309 312 311 311 312 313 313 308 307 308 308 306 313 314 312 310 306 305 309 307 305
325 326 326 326 326 327 327 327 328 328 329 331 332 333 333 332 331 331 330 329 330 330 330 331 329 329 327 326 326 324 322 321 321 320 318 318 318 317 317 318 319 318 318 318 318 318 317 316 316 316 315 315 316 314 313 313 313 313 313 311 311 311 309 306 306 307 309 308 308 308 308 307 307 305 302 304 302 307 311 307 304 303 306 305 303
324 324 325 326 326 327 326 328 328 328 330 332 332 332 332 332 331 329 329 329 330 329 329 329 327 327 327 326 326 324 321 318 318 317 318 318 316 316 316 315 316 317 316 316 317 317 316 315 315 314 314 315 315 312 311 311 311 311 312 311 311 309 308 306 304 305 304 304 306 305 305 305 303 302 303 304 302 298 299 304 303 301 305 303 303
325 324 325 325 326 327 327 327 328 330 331 331 331 331 332 332 330 329 329 330 329 329 329 329 328 327 327 327 325 323 321 319 319 318 316 316 314 314 314 314 314 314 315 314 315 315 316 313 313 313 312 313 314 311 310 310 309 308 308 307 307 307 307 306 304 302 302 301 302 301 302 301 301 300 300 302 298 295 296 294 295 298 302 302 302
325 326 326 326 327 327 328 328 329 329 330 331 330 331 331 331 329 328 328 329 329 329 328 327 328 328 327 327 323 321 320 318 317 316 315 315 313 313 313 312 312 312 312 313 313 312 312 313 312 312 312 313 312 309 309 308 308 307 307 306 306 304 305 304 302 301 301 301 300 300 298 299 298 297 297 297 298 297 293 292 293 293 293 297 301
325 325 326 326 327 328 328 327 328 329 330 330 329 330 330 329 328 327 327 329 329 328 327 326 327 328 327 326 322 319 318 317 315 314 313 313 312 312 311 311 311 310 311 310 310 311 312 314 311 311 312 313 310 308 308 307 307 306 305 305 304 303 302 301 301 301 300 299 299 298 297 297 296 294 295 295 295 293 293 293 294 294 294 294 299
325 325 325 325 326 326 327 326 327 328 328 329 329 329 328 328 328 326 326 328 329 329 328 327 327 328 328 326 322 320 318 316 314 313 312 312 311 310 310 310 309 309 309 308 308 309 310 309 311 309 309 308 307 307 307 306 305 304 303 303 302 302 302 301 299 298 298 298 298 298 297 297 297 296 296 296 295 294 293 292 292 293 294 295 297
325 325 324 324 324 325 325 325 326 326 327 327 328 328 327 327 327 326 325 327 328 328 327 327 327 328 328 325 322 320 318 316 314 313 312 311 311 309 308 307 308 307 306 306 307 308 309 308 308 308 307 308 307 306 305 305 303 302 301 301 300 300 299 299 298 298 298 297 296 297 297 297 296 297 297 296 295 295 294 292 293 294 292 293 296
325 325 324 324 324 325 325 325 326 326 326 327 327 327 327 327 326 326 325 326 327 327 325 325 326 327 327 324 322 320 317 315 314 313 312 311 311 309 308 307 307 306 305 305 306 307 307 308 307 307 307 307 307 305 304 303 302 301 300 299 299 299 299 298 298 298 297 297 298 296 296 296 296 297 296 296 295 294 293 292 291 292 293 292 295
325 324 324 324 325 325 325 325 326 326 326 326 326 326 326 325 325 324 324 324 325 325 324 324 323 323 323 323 319 318 316 314 313 313 312 311 310 308 308 307 306 305 305 306 307 306 306 306 306 305 305 305 305 305 304 303 302 301 300 300 299 298 298 298 297 297 297 296 297 297 296 296 296 296 296 296 296 295 294 293 292 290 291 293 291
324 324 323 324 325 325 325 325 325 325 324 324 324 324 324 323 323 323 322 322 322 322 321 321 320 320 320 319 318 317 316 314 313 313 312 311 309 308 307 306 306 305 305 305 305 305 304 304 305 304 304 304 304 303 302 301 300 299 299 298 298 299 297 297 297 297 296 296 296 296 295 295 296 296 296 296 296 296 295 295 294 292 289 288 290
323 323 323 323 325 325 325 325 324 323 323 323 323 323 322 320 320 319 319 319 319 319 318 318 318 318 317 317 316 315 314 312 312 311 310 310 309 308 306 306 306 305 304 305 303 303 303 303 303 303 303 303 303 302 301 300 300 299 298 297 297 298 298 296 297 296 296 296 296 295 295 295 295 296 296 296 296 296 296 296 295 293 292 289 287
323 323 324 324 324 324 325 324 323 322 322 321 321 321 320 319 318 317 317 316 317 317 316 317 316 316 316 315 315 314 313 312 312 311 310 309 308 307 306 305 304 304 304 304 303 303 304 305 302 302 302 302 302 301 301 300 299 298 298 298 297 298 297 298 298 296 296 296 296 295 295 294 295 295 295 296 296 296 296 296 296 296 295 291 290
322 322 323 323 324 323 323 322 322 321 321 320 319 318 318 317 317 317 316 316 316 316 316 316 316 315 315 315 314 313 313 312 312 311 310 307 306 305 304 303 304 304 303 301 301 301 301 301 301 301 301 301 301 300 300 299 299 298 298 297 297 297 296 296 297 297 296 296 294 294 294 294 295 295 295 295 296 296 295 296 296 296 295 294 292
322 322 322 323 323 323 322 320 319 319 318 317 316 316 316 316 315 315 315 315 315 315 315 314 315 315 314 314 313 313 313 312 312 310 307 305 304 303 302 302 302 302 301 301 300 300 300 300 300 300 300 300 300 300 299 299 298 297 297 297 297 296 296 295 295 296 295 295 294 293 294 294 294 294 294 295 295 295 296 295 295 295 295 295 294
321 322 322 322 322 321 320 319 318 317 317 316 315 315 315 315 314 314 314 314 314 314 314 313 314 313 313 312 312 312 312 312 310 307 305 304 303 303 302 302 301 300 300 299 299 299 299 300 300 301 300 299 299 299 299 299 298 297 297 297 297 296 295 295 296 295 295 294 294 293 293 294 294 294 294 294 294 294 295 295 295 295 294 295 294
321 322 322 322 321 319 318 317 317 315 315 314 314 314 313 313 313 313 313 313 312 313 313 312 313 313 312 312 312 312 311 309 306 304 303 302 301 301 301 300 299 298 299 298 298 298 298 298 298 298 299 299 299 298 298 298 297 297 297 297 296 296 295 294 294 294 294 294 294 293 293 294 294 293 293 293 293 293 293 294 294 294 294 294 295
321 321 321 321 320 318 317 316 315 314 314 313 313 313 312 312 312 312 312 312 312 312 312 312 312 311 311 311 311 310 308 305 304 303 301 301 300 300 300 298 297 297 298 297 297 297 297 298 297 298 298 298 298 298 298 297 297 296 296 296 296 295 295 294 294 293 293 294 294 294 293 294 294 293 293 293 293 293 293 293 293 294 293 294 294
321 322 321 320 319 317 316 314 314 313 313 312 312 312 311 311 311 311 311 310 311 311 312 311 311 310 310 309 308 307 305 304 302 301 300 299 299 299 299 297 296 296 296 297 296 297 297 297 297 297 297 297 298 298 297 297 297 296 296 296 295 295 295 294 294 293 293 294 293 294 293 294 294 293 293 293 293 293 293 293 293 293 293 293 294
319 319 320 318 316 315 315 314 314 313 312 312 311 311 311 310 310 310 309 309 309 310 310 310 309 308 308 307 305 305 303 302 300 300 299 298 298 297 297 295 295 295 295 296 297 296 296 296 296 296 296 297 297 297 297 297 297 296 296 296 295 295 295 295 295 297 298 295 295 294 294 294 294 294 294 294 293 293 292 293 292 293 293 293 293
318 318 318 316 316 315 315 314 313 313 312 311 311 310 310 310 309 309 308 308 307 308 308 308 308 307 306 304 303 302 301 300 299 298 297 297 297 296 295 296 295 294 294 295 295 296 296 295 295 295 296 296 297 297 297 296 296 296 296 296 296 296 296 295 295 295 295 296 295 295 295 295 295 294 295 295 294 293 293 293 292 293 292 292 292
318 317 317 316 315 314 314 314 313 312 312 311 310 309 309 309 308 308 308 307 306 306 306 306 306 306 304 303 302 301 299 298 297 296 296 295 295 295 295 294 295 294 294 294 294 294 295 294 294 295 295 296 296 296 296 296 295 295 295 295 295 295 295 295 295 295 295 295 295 295 296 295 296 296 296 295 294 294 293 293 294 292 292 292 292
318 317 315 314 314 314 314 313 312 312 311 310 310 310 309 308 307 307 307 306 305 305 305 305 305 304 303 302 301 300 298 297 297 296 295 295 294 294 294 295 295 293 293 293 293 294 295 294 294 294 295 296 295 295 295 295 295 295 295 295 295 295 295 294 295 294 295 295 295 295 295 296 298 298 299 297 295 294 294 293 293 293 293 292 292
317 317 315 314 313 313 313 312 312 311 310 309 309 309 309 308 308 307 307 305 305 305 304 304 303 302 301 301 300 299 298 298 296 295 295 294 294 294 294 294 294 294 294 293 293 293 293 293 293 294 294 295 295 295 295 294 294 294 295 295 295 295 295 294 294 294 294 294 294 294 295 299 300 300 299 299 297 296 295 293 293 293 294 292 291
316 316 316 315 314 313 313 312 311 310 309 309 308 308 308 307 307 307 306 305 305 304 303 303 302 301 300 300 300 299 297 296 295 295 294 294 294 294 293 292 292 292 292 293 292 293 293 293 293 293 294 294 295 296 298 297 297 296 294 294 294 294 294 295 295 294 293 294 293 293 297 300 299 298 298 297 294 294 295 295 294 294 293 292 292
316 316 316 315 314 313 313 311 311 310 309 309 308 308 308 307 307 306 305 305 305 303 303 302 301 300 300 300 299 297 297 296 295 295 294 294 293 293 292 291 291 291 292 293 292 291 292 292 293 293 293 293 294 296 296 294 294 296 295 295 295 295 294 294 294 293 294 295 293 293 293 297 297 296 298 295 293 293 293 293 293 294 294 294 292
316 316 316 315 313 312 312 311 310 310 309 308 308 307 307 307 306 306 305 305 304 303 302 301 301 300 300 299 298 297 296 296 295 294 294 293 292 292 291 291 291 291 292 291 291 291 291 291 292 292 292 293 294 296 293 294 294 294 297 296 295 295 294 294 293 293 294 294 294 294 294 295 295 298 297 294 294 293 292 292 292 292 292 292 292
316 316 316 315 314 313 312 311 311 310 309 308 308 307 307 307 306 306 306 305 304 303 302 301 301 300 300 299 299 298 297 296 295 294 293 292 292 292 291 290 290 291 290 290 289 290 290 291 292 292 292 293 293 294 293 294 294 294 294 295 295 294 295 294 293 293 292 292 292 293 294 294 294 297 295 293 293 292 293 293 293 293 292 293 290
317 317 317 316 315 314 313 311 311 310 310 309 309 308 308 308 307 306 305 304 303 303 302 301 301 300 300 299 299 298 297 296 295 294 293 292 292 291 290 291 291 290 289 289 289 289 290 290 291 291 291 291 292 294 292 293 293 293 293 294 295 294 294 293 293 292 293 293 292 293 292 293 294 294 293 294 292 291 291 291 291 291 291 292 291
316 316 316 316 315 314 313 311 310 310 310 309 308 309 308 307 306 305 305 304 304 303 301 300 300 300 300 299 299 298 297 296 294 293 292 291 291 291 291 290 289 289 289 289 289 289 290 291 290 290 291 291 292 292 291 292 292 292 292 293 294 294 293 293 292 292 292 293 292 292 292 293 293 292 294 294 292 291 291 290 291 291 291 291 291
317 316 316 315 315 313 312 311 311 310 309 309 308 308 307 306 306 305 304 304 304 302 301 300 300 299 299 299 299 298 297 295 294 292 292 291 290 290 290 290 290 289 289 289 289 290 289 289 289 290 290 289 290 291 291 291 292 292 293 295 294 293 293 293 293 292 292 292 292 292 293 293 293 291 293 291 291 293 291 290 290 290 290 290 291
317 317 316 316 315 314 313 311 310 309 308 308 308 307 306 305 305 304 304 304 303 301 300 300 300 299 300 299 299 297 296 295 293 292 291 291 290 290 290 291 289 289 288 288 288 289 289 288 289 289 289 288 290 291 291 291 291 291 292 292 293 293 292 292 291 291 291 291 292 294 295 294 292 291 292 290 290 292 290 290 289 289 289 289 290
316 316 315 314 314 314 312 310 309 308 308 308 307 306 305 304 304 304 304 303 302 301 301 300 299 299 299 299 299 298 297 295 294 292 292 291 291 291 291 292 289 289 288 288 288 288 288 289 288 287 288 288 288 291 291 291 291 291 293 292 292 291 290 291 290 290 290 291 291 296 297 294 291 292 291 289 289 293 290 290 289 288 288 288 289
316 315 314 314 313 312 311 310 308 307 307 307 307 306 305 304 303 303 304 303 302 301 300 299 299 300 300 299 299 298 297 296 294 294 293 291 291 291 292 291 290 289 289 289 291 288 287 287 287 289 295 289 289 292 291 290 290 291 292 290 291 290 290 288 288 290 291 290 290 291 293 293 293 292 289 289 289 292 290 290 289 288 288 288 289
314 315 315 314 312 311 309 308 307 306 307 307 306 305 304 303 303 303 303 302 302 301 301 301 301 300 300 299 299 298 297 296 295 294 294 292 293 292 291 291 290 290 290 290 290 288 287 288 290 290 291 288 288 289 292 290 291 290 290 290 290 291 291 289 288 294 291 290 289 290 292 290 289 289 289 289 289 289 291 290 289 288 288 288 290
313 313 310 312 311 311 309 308 308 306 306 306 306 305 304 304 303 303 303 303 302 301 301 301 300 300 299 299 299 298 297 297 296 295 294 294 293 292 291 291 291 290 290 289 288 288 288 288 288 287 287 288 289 288 291 290 291 291 291 290 289 289 289 288 287 290 287 288 289 290 289 291 289 289 289 289 289 289 290 292 289 289 289 290 290
312 310 311 312 310 310 309 308 307 306 306 306 306 304 304 303 303 302 303 302 301 301 300 300 299 299 299 299 298 298 298 297 297 296 294 293 293 293 292 292 291 291 290 289 289 289 288 288 288 288 288 287 292 293 289 290 290 290 290 290 290 291 289 289 289 288 287 288 288 289 290 291 289 289 289 289 289 289 289 291 290 288 288 288 289
309 309 311 311 310 309 308 308 307 306 306 306 305 304 303 303 302 303 303 301 301 300 300 300 299 299 299 298 298 298 297 297 296 296 295 293 293 293 292 292 291 291 290 289 289 288 288 288 288 288 287 287 288 291 292 291 290 290 290 290 290 289 289 294 289 291 289 289 288 289 289 291 289 289 289 289 289 289 290 290 288 288 288 287 289
310 311 311 310 310 309 308 308 307 307 306 306 306 304 304 303 302 303 301 301 300 300 300 299 299 298 298 298 298 297 297 297 296 296 295 293 292 292 292 292 291 291 290 289 288 288 288 288 288 288 289 288 287 287 291 291 291 289 290 289 289 289 290 291 291 289 288 288 288 288 290 289 289 289 289 288 288 289 289 288 288 288 288 288 288
309 310 309 309 309 307 307 307 307 307 307 307 307 305 303 302 303 302 301 300 300 299 299 298 298 298 297 297 297 297 297 296 296 295 294 293 292 292 291 291 291 290 290 290 289 289 289 288 288 288 288 287 286 287 286 290 290 289 289 289 288 289 289 288 289 290 292 291 290 289 289 289 288 289 289 288 289 289 288 288 288 288 289 287 287
309 308 307 309 308 307 306 305 306 307 307 307 307 306 303 303 302 301 301 300 300 299 298 298 298 298 297 297 296 296 296 296 296 296 295 294 293 293 292 290 291 290 290 290 289 290 289 289 289 288 288 288 287 286 287 285 291 292 291 289 289 288 291 291 291 290 289 289 289 288 289 288 289 289 291 289 289 290 288 288 288 289 287 287 287
308 307 307 308 307 306 306 305 305 306 306 306 306 306 305 303 301 301 300 300 299 299 298 298 298 298 297 297 296 296 296 295 295 295 295 294 294 293 292 291 290 290 290 290 290 290 290 289 289 288 288 287 287 286 286 286 285 285 287 290 289 289 291 289 290 290 289 289 290 291 289 288 288 288 287 287 287 288 288 288 288 287 287 287 287
307 306 308 307 306 306 305 305 305 305 306 306 306 305 304 302 301 301 300 300 299 298 298 298 297 297 296 296 296 292 294 295 294 294 293 293 293 293 292 291 290 290 290 290 290 290 290 290 290 289 287 287 287 287 286 286 286 286 287 286 286 290 288 286 287 288 288 290 290 288 288 287 287 287 287 287 287 287 286 287 288 287 287 287 287
305 305 306 307 306 306 306 305 305 306 306 306 305 304 303 301 301 300 300 299 298 297 298 298 297 296 296 296 296 295 295 294 293 293 294 293 293 292 292 292 291 292 293 292 291 291 292 292 291 289 288 287 287 287 288 288 287 287 287 287 287 287 287 286 290 289 291 288 287 287 287 288 287 285 286 286 286 287 287 287 286 287 287 287 287
304 305 306 306 305 305 305 305 305 306 306 305 304 303 302 302 301 300 300 299 298 298 298 297 297 296 295 295 295 295 295 294 293 293 292 291 290 292 292 293 292 292 291 291 292 293 293 293 292 291 291 290 289 290 289 288 287 287 288 288 288 288 288 289 289 288 289 286 285 286 286 285 286 287 286 285 286 286 286 286 287 286 286 287 287
304 304 304 304 304 304 304 304 304 305 305 305 303 302 301 300 300 300 300 299 298 297 297 296 296 295 294 295 295 295 294 294 293 293 292 291 290 290 290 291 292 292 291 291 291 291 291 292 294 293 291 290 290 289 288 288 288 288 288 288 287 288 288 288 287 285 285 284 284 285 285 285 284 285 283 285 284 284 284 284 286 287 286 286 285
Wind_Speed
6 6 7 7 6 6 5 5 6 6 6 7 7 6 7 7 8 7 6 7 7 7 6 6 7 6 5 6 7 5 5 5 5 5 6 5 5 5 5 5 6 7 6 7 7 7 7 6 6 6 5 6 6 5 4 5 5 4 3 5 5 7 7 7 7 4 3 3 2 4 3 4 5 7 8 7 7 6 5 6 6 7 7 8 7
7 7 8 7 6 7 6 6 8 8 7 7 8 7 8 8 8 8 6 6 6 6 5 5 3 4 6 5 5 4 5 6 6 5 6 6 6 6 6 6 7 7 6 7 7 7 7 6 6 5 5 6 5 5 5 5 6 7 4 4 5 7 6 7 8 4 4 3 4 5 5 3 3 6 8 7 6 6 6 7 7 8 8 8 7
8 7 9 8 7 8 7 6 6 6 6 6 6 7 8 7 7 7 6 6 6 5 5 5 4 5 5 5 5 5 4 5 6 6 6 8 7 6 6 6 6 6 6 6 7 7 7 7 6 5 6 4 6 6 6 7 6 6 6 4 3 4 4 5 8 7 3 3 1 2 4 4 4 5 3 6 6 6 6 8 7 8 9 8 7
11 11 10 6 7 7 7 6 6 6 5 5 6 7 6 7 7 6 6 6 6 5 6 5 7 7 7 7 6 6 7 7 8 6 7 9 8 7 6 6 6 7 6 6 6 7 7 7 5 5 6 5 5 5 6 6 6 6 7 6 3 4 4 7 8 9 6 4 4 2 2 2 3 4 7 4 3 8 8 8 8 8 8 9 9
9 9 8 10 10 9 8 6 6 6 5 6 6 6 5 7 7 7 6 6 5 5 6 7 9 9 8 8 9 9 7 8 8 6 6 7 7 7 6 6 6 7 6 6 6 7 6 6 6 6 6 5 5 6 5 5 6 6 6 6 5 3 4 4 7 8 10 7 3 2 2 3 2 4 6 4 1 4 5 6 9 10 8 9 9
9 9 9 8 8 7 8 8 7 5 5 4 4 6 7 7 8 8 7 5 5 5 3 4 6 9 8 8 6 7 7 7 8 8 6 6 6 5 7 6 6 7 6 6 6 6 6 6 6 6 6 5 5 5 5 6 7 7 6 4 6 6 5 6 5 6 8 10 10 7 4 3 2 4 3 4 5 2 2 7 10 10 7 8 8
8 8 8 8 9 8 8 7 7 6 4 5 5 6 8 8 9 8 7 7 9 9 10 8 7 4 5 6 6 5 7 4 5 6 7 5 6 7 6 6 6 7 6 6 6 6 6 6 7 7 6 6 4 6 7 7 6 6 4 6 6 4 6 7 5 3 3 8 7 8 10 8 5 3 2 4 4 3 5 7 7 10 6 8 10
9 9 9 9 9 9 9 7 7 6 5 6 6 6 8 9 9 7 6 5 5 6 5 5 6 6 7 7 6 4 6 7 5 6 5 6 8 6 5 6 6 5 6 6 6 6 6 7 6 6 6 5 5 6 6 5 6 6 6 7 7 7 6 6 5 6 5 3 5 7 7 7 7 7 4 1 1 5 3 3 7 7 5 7 8
9 9 10 10 9 9 8 8 7 8 7 7 6 7 7 9 9 9 8 7 7 7 7 8 9 9 9 9 8 5 6 7 5 5 6 6 9 6 7 6 6 7 6 6 6 6 6 6 6 6 6 6 6 6 6 7 8 8 8 8 8 6 6 5 7 6 6 6 4 6 4 5 5 6 5 4 4 4 4 6 7 3 3 5 7
9 9 9 9 8 8 7 8 9 7 7 8 7 7 7 8 9 10 9 7 7 7 7 8 11 11 11 10 11 8 6 7 7 7 6 6 8 7 6 6 6 6 6 6 7 7 7 6 6 6 6 6 6 7 8 8 8 9 8 8 8 8 6 7 8 7 7 7 7 5 6 3 3 5 7 6 3 7 4 7 9 12 10 4 4
10 9 9 8 7 7 9 9 9 8 7 9 8 7 7 8 9 9 7 6 8 8 7 7 9 9 9 11 14 12 9 10 8 6 7 7 6 5 5 5 4 5 5 6 6 6 6 5 6 6 6 6 6 7 7 7 8 8 8 9 8 8 7 8 10 9 8 8 9 8 8 7 5 5 5 6 6 5 5 5 8 6 7 7 6
10 9 9 10 9 8 9 9 10 9 8 9 8 8 7 8 9 9 8 7 6 7 7 7 7 8 8 10 11 12 12 9 10 9 8 8 7 6 5 5 5 5 5 6 6 6 6 6 6 7 7 7 7 6 7 7 7 7 7 7 7 8 9 9 8 9 9 8 8 6 6 6 6 5 5 5 5 5 3 4 6 7 3 1 4
11 10 9 9 10 10 10 10 10 9 8 9 8 8 7 7 8 9 8 7 7 7 7 6 7 8 8 9 9 9 9 10 10 9 7 9 7 7 7 5 5 5 5 6 5 5 5 6 6 7 6 6 7 8 7 8 8 8 8 9 9 9 7 8 8 8 8 7 6 5 5 6 6 5 5 5 5 3 4 5 4 3 4 6 2
11 10 9 9 10 9 9 10 9 8 8 9 8 8 7 7 6 8 8 6 5 6 8 6 5 6 7 9 10 9 9 9 9 9 8 7 7 7 7 6 5 5 6 5 4 5 6 5 6 7 7 7 8 8 8 8 8 8 8 9 9 7 9 10 9 9 8 7 6 6 6 6 6 5 5 5 5 5 5 8 6 5 2 3 3
10 11 10 9 10 10 10 9 9 8 9 9 8 8 7 7 7 8 8 6 6 6 7 7 6 7 7 8 9 8 9 8 7 7 8 8 7 8 7 5 6 5 6 5 5 6 6 6 6 7 7 7 8 8 8 8 9 9 8 8 8 8 9 9 8 8 8 8 7 6 7 6 6 6 5 5 4 5 5 5 7 9 6 1 5
10 10 10 10 10 10 10 9 8 7 9 8 9 8 7 7 7 8 8 7 7 7 7 8 7 7 9 9 9 9 8 8 8 7 7 8 8 8 7 6 5 6 5 6 5 6 6 7 6 7 7 8 8 8 9 8 8 9 8 8 9 6 9 10 7 8 8 8 7 6 7 7 5 5 5 5 5 4 4 3 5 6 7 8 8
10 11 9 10 10 10 10 9 8 9 9 8 8 9 8 7 8 8 7 6 7 8 8 8 8 9 8 9 10 9 9 10 9 10 9 8 8 8 8 7 7 6 6 5 6 6 6 6 7 7 7 7 8 8 9 9 9 8 8 9 9 8 8 8 7 7 7 6 7 8 6 6 5 4 5 5 4 4 4 4 5 6 5 4 8
10 10 11 11 9 10 10 9 10 9 9 9 9 8 8 9 10 9 8 9 7 9 8 8 10 9 9 9 8 9 9 9 10 11 9 9 8 8 7 7 6 6 6 5 6 6 6 7 7 7 7 8 8 8 9 9 9 8 9 8 7 8 8 7 7 7 7 6 7 6 5 6 5 5 5 4 4 4 4 5 4 4 4 6 6
12 11 12 13 12 11 10 10 10 10 10 9 9 8 7 7 9 10 10 9 10 8 8 7 8 8 8 9 10 9 9 9 9 10 9 10 9 8 8 8 7 6 6 7 7 7 6 6 7 7 7 8 8 8 8 8 9 9 8 8 8 8 8 8 6 6 5 5 6 7 5 5 4 5 5 4 4 4 4 4 4 4 4 4 5
12 12 11 11 11 12 12 12 11 11 11 10 10 8 9 8 9 9 10 9 9 10 9 9 7 8 9 8 7 8 9 9 9 10 9 9 8 9 9 8 6 5 7 7 7 7 6 7 6 7 8 7 8 8 9 9 8 8 8 8 7 8 8 8 7 5 4 5 6 6 5 5 4 4 4 4 4 4 4 4 4 4 3 3 3
12 12 12 11 11 11 11 12 11 9 10 10 10 10 9 7 9 11 13 10 9 9 9 8 9 8 10 10 10 9 10 9 10 10 10 9 8 6 6 6 6 6 7 7 7 7 7 7 7 6 8 8 9 8 7 8 8 9 8 8 8 7 8 7 6 6 5 5 5 6 6 5 4 5 4 4 4 4 3 3 3 3 4 3 3
12 12 12 11 11 13 11 10 11 10 10 11 9 9 9 8 8 9 10 10 10 9 9 9 8 9 10 9 9 8 9 9 10 10 9 9 8 8 6 6 9 6 6 8 7 6 6 7 8 8 8 8 9 9 7 8 9 9 8 6 7 8 8 7 6 7 6 4 6 7 7 5 4 5 4 4 3 3 4 4 4 4 4 5 3
14 13 11 11 11 13 13 12 12 13 11 11 10 10 9 9 9 9 10 9 9 10 9 9 9 9 10 9 9 9 9 11 11 9 9 7 7 7 4 7 7 7 6 6 7 7 7 7 8 8 8 8 8 8 7 8 8 9 8 7 6 6 7 6 6 6 6 5 7 7 6 5 4 6 5 4 4 4 3 4 5 4 5 6 5
11 10 10 10 11 11 14 13 11 11 11 10 10 9 9 8 9 9 10 10 9 9 9 10 9 9 9 9 9 9 11 10 10 8 10 8 6 5 5 7 7 7 7 6 6 7 7 8 8 8 8 8 8 8 8 8 9 8 8 7 6 6 5 6 6 6 6 6 6 6 5 5 5 6 6 6 5 5 5 5 5 5 5 6 5
12 12 12 13 13 12 13 14 12 10 10 8 10 11 10 8 8 9 8 8 9 8 9 9 10 11 9 9 9 9 10 10 10 9 9 7 6 6 6 8 8 8 7 7 5 6 7 8 8 8 8 8 8 8 9 8 7 7 7 7 6 5 5 5 5 5 5 5 5 5 5 5 5 6 6 7 6 9 6 5 6 5 5 5 6
13 13 13 15 15 12 11 12 12 11 11 9 8 10 10 9 9 9 10 8 8 7 8 9 9 10 9 10 9 9 10 11 10 10 9 7 7 7 8 6 7 9 7 6 7 5 6 8 7 7 8 8 7 8 8 8 7 7 6 6 5 5 5 5 5 5 4 4 5 5 4 4 4 6 6 7 7 8 6 6 6 6 6 6 6
15 13 11 11 13 15 14 13 12 12 11 10 9 10 11 10 8 7 8 9 8 8 8 9 8 9 9 9 9 10 10 10 9 9 8 8 8 7 8 8 6 7 8 7 6 8 5 8 7 7 8 8 8 7 7 7 7 7 7 6 5 5 5 4 4 4 3 3 4 4 5 4 5 5 5 6 6 7 5 6 5 6 6 6 6
13 12 12 12 12 13 15 15 13 12 12 10 8 10 12 11 10 8 8 8 7 9 8 8 8 8 9 9 9 9 9 9 8 8 8 8 8 7 7 6 6 8 7 7 8 8 5 6 6 7 6 7 7 7 7 7 7 7 6 6 6 5 5 4 4 3 4 4 5 5 5 5 5 5 5 5 5 6 5 6 5 5 6 6 6
16 16 14 13 13 13 13 15 15 12 13 12 11 8 9 9 9 8 9 9 9 9 8 8 8 9 9 9 9 8 8 9 9 9 9 8 8 8 7 7 6 6 5 6 6 7 8 8 6 7 7 6 7 6 6 6 7 6 6 6 5 5 5 5 4 5 5 5 5 5 6 6 8 11 12 8 7 6 4 6 6 6 6 6 6
16 17 16 14 13 12 13 13 14 15 13 11 11 11 10 11 10 9 9 8 9 9 9 8 8 8 9 9 9 9 9 9 9 9 9 8 8 7 7 7 7 7 6 6 6 5 7 8 8 7 6 5 5 4 5 8 7 7 6 5 5 5 5 4 5 5 5 5 5 5 6 11 12 11 11 11 12 11 9 4 4 4 5 5 6
15 14 14 13 13 13 13 14 15 15 15 13 11 11 11 10 10 10 10 9 9 10 9 9 9 8 9 9 10 9 9 10 9 9 8 9 8 7 8 7 7 6 6 5 5 6 6 6 7 7 7 5 4 4 7 9 9 10 7 6 6 5 4 4 5 5 5 4 5 5 5 7 8 7 8 11 11 12 11 12 11 10 8 5 5
15 15 15 16 16 16 16 16 15 14 14 13 11 12 13 11 10 10 9 9 10 10 10 10 10 10 10 11 10 10 10 9 9 9 9 8 8 8 8 7 7 7 5 5 6 6 6 6 6 6 6 5 4 4 8 10 10 10 8 7 6 5 4 4 5 4 4 4 5 5 5 4 5 7 6 7 9 11 11 11 11 10 10 11 8
17 17 17 17 18 17 16 14 13 14 13 13 13 12 13 13 13 11 10 10 11 11 11 12 11 12 11 11 11 11 11 9 9 9 9 8 8 8 7 7 7 5 5 6 5 6 6 5 6 7 6 4 4 5 8 9 9 10 10 8 5 5 5 5 4 3 4 4 4 6 7 6 5 10 7 6 7 8 9 10 10 9 9 11 12
13 14 14 12 11 12 13 14 14 13 14 14 13 14 13 14 14 13 13 12 13 12 11 11 11 11 12 12 12 11 11 10 10 9 9 9 9 7 6 5 6 6 6 6 5 6 5 6 6 7 6 4 5 4 7 9 9 9 10 8 6 5 5 4 3 2 3 4 4 5 5 7 7 7 6 7 7 6 7 8 8 7 6 9 10
16 15 14 14 14 13 13 13 14 16 14 13 12 9 9 9 11 13 13 13 12 11 10 11 11 10 11 12 13 12 12 11 11 11 11 10 10 8 6 5 6 6 7 6 6 6 5 5 5 6 6 5 3 3 7 9 9 9 9 7 6 5 4 3 2 3 3 3 4 3 3 4 5 6 5 7 6 6 6 6 8 9 7 6 7
16 18 17 16 17 18 17 15 12 12 11 12 12 11 12 11 9 11 12 13 12 11 11 11 11 11 12 12 13 12 12 11 10 9 9 10 10 8 8 6 5 5 4 5 4 5 6 6 5 6 6 5 2 2 6 9 9 9 9 6 5 5 5 3 3 4 3 3 3 4 4 5 5 6 6 9 6 5 4 6 8 9 9 7 6
11 13 13 13 13 13 13 13 13 12 12 12 11 11 12 12 12 11 12 11 11 12 12 12 12 12 13 13 13 13 12 11 11 11 10 10 10 8 7 6 7 5 6 5 5 4 5 6 5 5 7 5 3 2 5 8 8 10 7 5 5 5 4 3 2 2 3 3 4 4 4 4 5 5 7 9 9 5 4 5 6 8 8 8 7
9 8 9 10 10 10 11 13 15 14 13 11 12 13 14 13 13 12 13 12 11 12 12 12 11 12 11 12 14 14 14 13 12 12 11 9 8 7 8 6 8 8 6 6 6 6 4 4 6 6 5 6 3 3 5 6 7 6 6 7 5 5 4 3 2 2 3 4 4 6 5 4 4 5 8 8 7 4 5 5 5 7 8 9 9
14 15 13 12 12 14 14 13 14 14 12 12 12 13 13 12 12 13 13 13 12 12 12 12 12 11 11 11 12 13 13 13 13 12 12 11 9 9 7 6 6 6 6 6 5 6 5 3 4 4 6 7 5 3 5 7 7 7 6 5 6 5 5 3 2 2 3 3 3 2 3 3 4 6 8 7 7 4 3 4 5 5 7 8 7
10 10 12 13 12 13 12 13 14 14 13 15 14 13 14 13 13 12 12 12 12 12 11 10 11 11 10 10 10 12 12 13 12 11 11 10 8 8 7 7 6 6 7 6 5 6 6 4 2 3 4 5 5 3 3 7 7 7 6 6 5 6 5 3 2 3 4 5 4 4 3 6 9 9 9 8 6 5 3 3 3 5 6 8 7
13 12 12 11 12 14 16 16 14 13 13 13 13 13 12 12 12 12 14 11 10 11 12 12 11 11 11 11 10 11 13 11 11 11 10 9 8 9 8 7 7 6 6 6 6 5 5 4 2 3 4 3 3 5 3 6 7 7 7 6 5 5 5 4 4 3 2 3 5 5 4 5 9 9 8 8 6 6 4 3 3 4 3 7 8
8 12 13 12 12 11 11 11 10 14 14 13 14 13 12 12 12 14 12 10 12 12 11 11 12 12 12 11 11 9 11 11 10 10 10 9 7 8 8 8 7 7 7 6 5 5 5 4 2 2 2 2 1 4 4 4 6 7 6 6 5 4 4 5 3 2 2 3 3 4 4 6 8 8 8 7 7 6 6 3 5 6 8 9 7
11 10 10 12 11 12 13 13 11 12 12 13 14 14 13 12 13 11 9 11 12 12 12 12 12 12 11 11 10 11 10 9 10 10 12 11 9 8 7 8 8 8 8 7 6 5 5 5 3 1 1 1 2 1 3 3 4 6 6 5 5 4 4 2 3 1 2 4 3 3 4 6 7 7 7 6 6 6 4 5 7 8 8 9 6
9 12 12 13 12 11 12 11 12 12 12 12 14 13 12 12 12 9 10 11 12 12 12 12 11 11 11 10 10 10 9 9 10 10 10 11 10 8 8 7 8 8 7 7 6 6 5 5 6 4 2 1 0 1 1 2 2 3 4 5 4 4 3 3 2 2 3 4 4 4 3 7 7 7 6 6 6 5 5 8 8 8 8 7 4
14 13 12 12 14 14 12 12 11 13 12 12 12 13 13 14 10 11 13 13 13 13 12 12 11 11 11 10 10 10 9 9 9 11 10 10 10 9 8 6 7 7 8 7 6 6 6 6 5 6 5 4 2 1 1 0 1 0 1 3 3 3 2 3 0 2 3 4 5 6 7 7 6 6 6 5 4 5 8 8 8 8 7 4 5
9 10 11 11 11 12 13 13 11 12 12 12 11 13 16 14 12 13 13 13 13 13 12 12 11 11 11 11 11 9 9 10 10 9 10 10 11 9 9 8 7 7 8 8 7 7 7 6 6 6 6 5 3 3 3 2 1 1 1 2 2 2 1 1 2 4 5 7 6 5 6 6 5 4 3 3 4 5 8 8 6 6 4 4 4
12 11 11 10 11 12 12 13 12 10 10 10 11 9 9 9 12 11 12 13 13 13 12 11 12 10 9 10 11 9 8 8 9 8 8 9 9 9 9 9 8 8 8 7 7 7 7 7 7 6 6 4 4 4 4 4 3 3 4 3 2 1 0 0 2 2 3 4 3 2 2 3 3 4 4 4 5 6 5 4 4 3 3 3 3
7 9 10 10 11 12 12 13 12 11 10 10 10 9 10 11 11 12 12 12 12 12 12 12 12 11 10 9 9 12 11 8 8 9 8 8 8 9 9 10 10 10 10 9 8 8 8 8 7 6 5 4 4 5 5 6 5 5 5 4 3 2 3 3 3 3 3 2 1 1 1 1 2 2 2 2 2 3 3 4 5 4 4 3 3
9 9 9 11 11 12 13 13 12 11 11 10 9 9 10 13 12 12 13 14 13 12 11 11 10 9 9 9 10 10 9 9 8 7 8 9 10 9 9 7 4 6 9 10 9 8 7 7 7 7 7 6 5 6 8 7 7 7 8 6 5 5 4 3 2 1 2 2 2 1 2 3 3 2 4 4 4 4 5 4 5 4 4 4 4
6 7 7 8 8 11 12 12 10 11 11 10 10 10 11 11 12 12 13 13 12 11 11 11 11 11 11 9 8 8 8 9 9 9 7 3 1 6 8 9 8 8 10 10 11 10 10 8 7 7 8 9 9 10 7 10 11 10 9 8 6 5 4 3 1 2 2 1 1 1 3 3 5 4 4 4 4 5 5 6 6 3 3 4 4
9 9 8 9 9 9 10 10 10 10 10 10 10 10 11 11 11 12 13 13 13 11 10 10 10 8 9 9 9 8 8 8 9 9 8 8 6 2 2 4 6 9 11 12 12 13 12 13 11 8 8 9 4 1 7 11 11 11 10 9 7 5 3 3 4 2 1 1 1 2 3 2 3 4 3 4 4 4 4 4 5 6 5 3 3
Wind_Direction
168 167 169 170 162 155 152 147 142 136 139 137 133 132 130 127 125 121 123 122 124 124 128 129 122 106 83 96 104 100 96 92 84 79 78 76 79 76 77 75 77 77 74 81 83 84 79 77 74 61 61 70 71 65 49 48 37 46 53 45 41 41 19 0 347 320 331 318 18 16 21 43 75 66 68 59 55 52 48 49 43 43 38 35 28
161 167 165 167 162 158 157 155 148 146 152 144 143 144 135 132 131 126 124 121 125 127 126 116 112 134 133 122 120 113 114 110 101 96 89 78 71 70 70 72 74 77 81 86 86 87 85 75 69 65 66 69 72 62 54 48 39 36 20 60 41 59 42 1 348 343 31 29 338 346 351 25 73 66 66 57 56 54 47 49 42 44 39 34 25
174 171 165 164 159 163 163 157 157 151 150 151 140 133 133 131 130 131 125 118 106 101 103 120 111 98 114 124 128 103 76 93 97 100 95 89 72 66 64 66 74 71 74 81 84 77 80 80 67 61 52 62 70 53 40 41 30 33 32 56 35 43 57 18 15 24 33 334 158 2 31 7 329 10 42 62 57 59 52 47 41 42 38 34 25
184 176 171 159 161 163 161 157 153 144 150 143 140 133 128 125 129 118 111 103 108 111 112 108 115 115 110 116 115 113 123 105 95 88 89 85 71 64 54 56 64 69 67 71 77 75 75 78 76 67 62 51 69 72 50 42 25 23 26 34 66 59 16 28 24 27 34 5 24 40 354 39 337 5 338 339 68 65 50 46 40 32 30 30 26
173 165 166 167 167 172 168 153 142 157 157 151 142 131 121 123 116 100 98 108 115 118 127 130 124 116 114 107 108 106 104 105 95 68 71 85 85 61 57 55 62 68 62 65 73 75 75 79 78 69 70 53 64 71 63 48 44 32 25 39 39 113 76 45 30 28 38 23 84 84 38 45 56 305 322 289 350 60 55 56 42 30 28 31 30
182 175 169 167 168 160 162 156 154 154 156 141 125 114 113 109 103 99 102 105 114 100 88 137 140 136 132 123 122 119 120 120 117 120 94 77 78 84 70 59 64 67 59 63 69 75 74 72 76 82 73 65 64 75 72 61 44 41 25 43 54 38 106 69 54 36 48 43 44 57 77 104 342 320 14 326 351 40 63 51 41 18 18 29 32
180 182 173 168 171 169 162 160 156 156 145 123 119 115 112 111 113 121 127 122 120 136 175 156 125 85 96 116 117 122 113 58 87 95 109 92 92 80 74 62 57 74 64 63 65 66 73 74 79 77 73 73 74 78 68 62 56 53 46 55 49 52 58 74 44 310 43 41 41 56 64 54 43 41 33 284 323 340 25 21 36 5 16 30 26
183 187 183 179 180 178 167 151 151 150 129 129 127 124 124 125 127 123 111 88 108 140 160 84 102 93 90 82 103 116 123 122 107 101 91 102 90 80 76 69 57 39 70 62 61 67 73 74 74 78 79 74 74 71 74 66 71 60 59 62 62 54 58 82 77 35 65 22 35 51 59 65 58 54 20 8 292 308 316 55 87 360 14 28 34
186 187 185 183 182 178 165 149 141 134 138 139 134 128 126 131 126 121 121 137 150 158 141 121 120 129 135 138 124 104 115 113 104 97 99 92 91 84 80 77 68 59 43 61 57 60 66 75 75 79 81 78 77 76 73 72 72 74 66 61 62 63 67 80 79 64 56 42 32 32 43 53 54 59 34 23 55 324 296 358 342 57 83 50 13
191 190 182 183 181 174 157 138 135 139 133 132 121 125 134 135 130 130 143 148 150 159 153 140 141 145 145 137 124 124 122 109 108 108 99 100 94 90 83 78 76 68 57 56 65 59 69 68 75 79 85 85 78 84 84 77 74 72 71 76 77 79 66 69 74 72 66 57 55 51 49 29 46 25 26 15 39 60 12 333 346 347 350 9 52
187 182 179 175 164 155 151 149 141 132 133 135 133 135 137 133 133 141 145 141 159 164 158 158 144 143 143 141 137 139 142 133 125 112 114 105 94 88 77 76 69 68 68 62 61 66 71 68 76 78 77 82 80 80 79 85 84 81 78 77 74 77 74 71 69 64 65 61 52 49 55 52 57 57 27 25 42 20 350 343 334 351 317 315 5
178 174 172 165 154 153 152 144 142 137 138 138 138 133 134 136 139 135 134 146 155 158 152 148 140 141 143 139 141 143 145 143 136 132 129 117 110 104 99 91 67 68 67 71 60 61 73 71 74 81 80 81 79 84 86 87 85 84 81 80 76 70 70 71 71 69 67 69 61 58 62 63 57 55 46 41 38 39 23 326 335 328 322 202 309
176 177 169 164 164 156 150 136 143 147 151 141 138 137 136 138 145 140 132 148 160 154 156 135 133 140 142 136 134 134 135 134 129 123 130 123 120 114 112 95 92 76 71 78 65 68 78 82 78 81 83 83 92 91 87 86 88 86 85 77 73 69 69 75 74 71 70 69 74 63 65 60 55 47 47 46 40 42 34 354 342 329 300 318 331
177 173 169 164 165 161 153 151 153 156 150 142 142 142 138 139 143 144 144 146 145 141 124 137 144 139 139 134 134 133 134 130 129 128 127 120 117 114 113 111 99 100 96 86 83 80 70 75 82 84 90 97 96 93 91 89 88 86 81 81 77 78 78 78 78 77 72 69 66 68 57 52 51 41 44 43 39 32 28 21 339 339 263 285 325
166 165 165 161 159 156 156 156 158 159 150 144 146 140 135 144 149 143 138 142 144 132 126 128 122 110 114 125 124 127 131 122 118 122 125 119 113 111 106 104 104 100 97 93 81 82 82 84 86 91 93 93 95 94 92 89 88 86 83 85 83 82 79 79 73 72 70 64 58 58 64 50 45 43 39 45 44 45 40 20 17 357 352 299 352
162 155 151 156 156 155 155 160 159 151 145 143 144 138 140 144 143 141 144 145 138 128 127 129 118 115 120 122 122 124 118 114 113 112 108 112 117 115 109 100 103 107 95 92 73 86 90 89 86 91 95 96 96 97 95 92 92 92 89 88 86 79 82 75 72 70 67 63 64 59 63 55 45 43 44 44 44 39 41 35 24 33 15 349 340
154 160 154 152 155 157 156 153 151 151 150 150 146 142 141 135 131 131 127 122 122 118 118 119 117 114 116 121 123 121 123 126 125 119 116 113 112 113 113 113 114 106 102 92 92 82 88 93 93 94 94 97 94 93 95 96 94 92 93 91 88 82 80 74 69 70 68 67 65 61 69 67 51 45 45 43 36 36 35 28 35 36 21 13 355
143 151 159 156 155 156 153 147 149 149 145 143 141 137 141 141 138 133 129 123 118 118 118 122 120 117 120 119 119 124 124 120 119 120 120 116 113 112 116 115 108 104 100 98 93 90 86 91 96 95 97 95 99 99 99 99 97 91 90 87 87 86 82 74 69 71 68 71 73 69 62 66 51 45 47 33 34 27 19 19 23 16 20 24 6
150 148 157 161 162 159 149 146 145 140 137 134 126 125 127 133 139 137 134 131 128 120 116 113 120 126 128 130 128 123 121 120 120 119 120 119 120 118 114 112 104 100 102 103 99 95 96 89 96 99 99 102 104 103 101 97 97 97 92 89 81 81 82 78 68 73 70 73 76 74 61 66 47 50 41 32 25 22 11 5 1 1 4 19 1
160 155 159 157 154 150 146 142 142 141 136 134 130 129 134 138 133 127 120 120 122 121 122 120 119 122 119 113 112 119 121 121 120 121 119 118 116 117 115 106 98 99 103 103 100 102 101 101 98 105 105 108 105 100 98 99 97 95 96 88 81 84 81 79 75 65 77 77 81 77 65 62 49 49 41 29 21 11 8 359 356 350 356 7 356
160 157 157 153 146 137 138 136 134 132 135 135 139 141 138 140 140 137 129 128 124 123 122 124 121 119 122 125 127 125 120 115 113 113 115 116 114 104 96 108 107 98 111 104 102 102 102 105 109 109 113 113 108 103 102 104 99 97 91 89 83 81 83 82 87 81 73 76 75 75 66 54 46 50 34 24 11 1 352 354 345 353 344 352 359
158 156 154 151 145 134 129 133 134 134 137 140 138 132 140 148 145 128 124 131 130 125 126 125 120 123 122 122 118 116 113 111 113 114 113 115 113 111 117 112 104 101 108 110 104 106 106 112 110 111 109 107 105 107 110 105 103 100 92 88 89 85 90 88 90 87 76 69 69 71 58 50 38 56 30 22 7 353 356 347 360 351 342 331 353
161 158 151 146 146 143 139 142 143 142 144 145 140 142 146 146 135 129 130 128 131 130 124 123 122 121 120 118 117 114 114 115 116 117 114 110 105 105 111 109 108 108 92 104 113 115 116 115 108 108 107 105 108 110 109 107 104 103 102 98 97 103 106 108 97 91 82 74 66 63 56 45 23 40 26 15 5 1 353 358 344 345 336 324 327
153 151 145 141 137 142 140 144 145 146 146 153 140 140 142 140 127 129 127 125 125 126 125 123 120 117 118 118 116 116 116 117 115 117 118 114 108 97 110 104 107 109 106 94 102 118 118 113 108 104 107 112 112 112 108 106 110 111 113 112 111 108 109 109 104 94 82 73 72 63 44 38 27 34 10 4 6 359 6 348 340 336 329 325 318
145 147 150 142 139 150 152 148 149 148 144 145 145 148 143 129 128 128 113 120 124 126 124 124 125 123 121 118 117 118 119 118 119 120 117 105 107 109 108 113 115 108 107 114 103 111 112 109 111 115 115 118 121 119 113 110 111 117 119 117 117 115 113 109 104 100 91 84 72 70 46 32 28 23 4 9 357 359 352 348 338 332 333 326 322
146 147 151 154 153 154 151 149 146 150 149 148 158 149 134 135 134 135 132 129 124 122 123 123 125 124 123 120 119 119 120 122 121 121 118 115 114 113 113 105 117 116 108 104 111 104 107 106 105 111 115 119 122 120 121 123 120 114 109 107 111 113 111 103 97 89 90 78 75 53 37 31 29 29 8 357 360 351 339 347 340 336 336 329 323
150 151 150 149 153 157 155 150 146 150 150 151 161 148 135 135 129 133 133 129 127 124 123 122 125 125 125 125 124 125 126 125 122 120 118 115 113 114 113 115 113 117 118 114 103 102 91 106 110 114 118 124 122 121 123 123 121 119 120 118 112 106 97 95 89 87 73 67 44 28 19 14 20 26 21 8 350 345 340 335 342 336 331 333 326
149 147 151 157 156 157 157 149 150 154 152 151 161 152 141 143 141 139 135 130 129 126 126 125 127 126 123 123 123 124 122 120 116 114 112 111 109 104 104 104 107 109 112 115 117 110 107 104 112 111 115 122 122 121 120 122 125 130 126 123 123 114 104 85 79 65 55 43 34 25 15 7 10 24 20 22 18 344 337 336 344 341 337 332 330
162 160 157 157 161 162 158 154 151 151 153 154 151 143 136 138 141 138 138 138 134 128 126 125 123 120 120 122 121 118 117 116 114 111 109 107 104 104 103 103 101 101 96 97 103 113 118 107 101 108 113 117 126 133 138 136 130 129 127 125 123 122 118 107 80 61 44 39 28 17 5 1 10 6 5 13 15 12 351 338 333 341 331 332 323
168 170 167 162 160 158 158 154 152 155 156 155 152 149 148 145 145 143 137 136 129 127 126 125 121 119 122 122 121 120 118 117 116 113 113 112 110 107 104 101 98 99 102 102 103 106 115 121 116 107 107 115 122 138 149 151 143 138 130 119 114 123 124 119 100 78 45 37 25 18 0 9 6 1 359 3 358 356 1 353 323 314 323 320 326
168 169 163 160 157 158 158 160 161 160 159 156 158 148 142 145 147 146 143 144 133 130 128 128 125 127 126 123 121 122 122 118 117 114 114 112 110 108 106 103 102 105 108 112 112 114 111 115 118 120 116 114 125 143 145 148 143 138 131 132 132 131 122 105 98 90 75 46 21 7 4 2 5 357 355 355 352 357 351 350 345 341 339 335 333
169 170 166 162 163 165 168 169 165 160 156 154 158 154 149 152 149 147 144 140 133 134 135 137 138 135 131 128 126 125 121 120 119 119 117 115 114 111 109 111 111 106 101 99 108 110 111 112 109 106 111 120 126 154 155 148 148 148 140 134 136 135 126 111 105 99 88 55 19 2 353 6 357 356 1 351 348 348 347 344 341 338 336 335 338
171 171 175 173 170 170 168 164 161 160 159 159 157 157 159 155 153 149 145 142 142 144 149 150 145 138 136 133 132 128 127 126 124 122 121 116 112 107 110 118 116 115 109 110 120 116 111 111 113 112 105 103 116 149 157 149 149 149 142 135 142 145 133 131 110 99 58 41 19 2 349 349 354 358 358 350 353 339 336 336 338 337 332 335 336
173 175 173 168 161 163 166 167 165 163 160 157 163 165 165 163 155 150 150 150 149 160 153 145 145 144 141 140 137 133 134 134 130 126 122 118 110 116 133 126 118 113 116 117 115 113 114 109 113 112 110 104 111 145 146 138 139 143 148 142 150 142 126 110 108 54 46 24 3 358 351 335 338 350 343 350 347 341 333 334 337 338 336 330 331
173 172 173 171 168 162 159 163 168 167 166 164 167 160 142 144 153 150 151 150 159 154 142 146 146 142 139 138 138 138 138 140 141 137 131 130 129 136 131 128 124 133 139 141 140 128 120 112 110 113 109 94 79 132 141 128 131 134 136 133 130 117 108 95 61 55 47 4 353 358 341 319 325 332 338 349 343 336 333 326 328 331 334 327 317
179 176 172 169 172 172 169 168 161 160 161 163 161 152 150 148 148 148 150 157 156 146 147 149 146 146 144 144 143 144 141 134 127 126 130 131 129 145 143 137 122 116 115 116 105 109 118 119 120 117 109 100 67 124 130 123 125 127 125 119 126 120 115 96 42 40 25 16 15 357 349 340 341 328 327 344 340 328 329 336 335 329 331 332 318
168 170 174 172 166 164 161 152 155 161 161 165 153 150 148 147 152 156 157 158 151 151 156 155 151 151 153 152 147 141 135 134 138 137 140 140 142 145 141 140 127 136 134 132 134 122 129 130 128 123 112 110 100 108 120 120 123 125 115 115 119 111 104 98 37 8 10 357 2 338 331 351 343 318 336 340 337 335 353 349 336 329 326 324 326
158 155 155 159 162 154 152 154 157 165 168 159 153 153 153 157 159 159 159 159 158 160 158 153 152 154 157 151 148 144 143 148 147 151 149 153 149 142 147 152 143 145 140 140 130 117 122 134 133 136 135 128 127 128 126 119 120 125 131 132 131 122 103 73 16 350 6 7 333 335 357 16 336 330 339 336 336 341 1 345 343 335 332 334 332
164 164 163 161 162 161 158 158 159 158 159 154 154 152 152 159 162 164 164 162 164 159 158 157 157 158 153 150 150 148 148 152 154 156 153 154 154 152 149 137 137 131 132 132 123 122 119 111 135 144 135 122 128 122 126 124 121 121 120 122 125 125 117 68 25 351 337 4 343 322 358 5 349 335 337 345 348 350 348 346 335 331 331 328 321
161 162 162 158 152 147 153 157 163 165 158 155 155 159 163 163 165 165 167 171 166 160 153 148 149 149 149 152 155 150 151 154 159 155 153 152 145 136 142 142 139 135 133 130 124 129 130 139 131 108 114 129 123 122 128 129 125 120 121 121 126 126 135 118 43 44 12 343 346 345 2 358 355 349 345 342 344 348 342 342 352 354 330 319 328
161 161 149 150 157 161 164 166 168 157 155 154 155 156 162 163 162 168 177 167 147 142 150 156 152 149 150 154 157 155 153 154 156 156 151 144 146 146 143 143 139 130 124 123 128 133 129 132 94 101 111 120 137 126 124 128 126 125 129 127 126 126 139 129 120 68 38 338 326 331 327 335 342 338 335 332 333 345 348 354 358 334 296 295 305
149 150 153 153 156 159 160 158 154 155 156 158 158 162 164 163 169 180 170 141 143 149 148 148 152 153 154 155 155 153 150 148 150 149 147 145 147 148 150 148 142 142 139 136 137 136 139 140 108 100 103 59 59 121 120 118 127 131 131 132 122 146 155 132 99 40 330 288 278 298 310 320 325 323 318 319 328 341 352 2 332 316 318 329 333
147 157 160 151 154 158 161 160 154 158 160 162 161 163 164 166 175 170 142 142 147 150 151 154 153 155 156 153 151 149 145 146 150 158 150 149 149 151 150 146 144 145 142 144 148 146 148 152 149 126 33 23 19 42 96 109 119 128 133 132 134 143 177 132 115 264 251 269 279 285 284 296 305 305 307 312 318 341 346 340 333 341 336 334 327
156 156 157 155 155 157 156 157 156 159 162 163 164 162 164 168 172 146 140 143 147 149 150 153 155 154 152 150 149 149 148 151 151 154 151 146 152 154 153 156 154 149 150 150 159 158 156 162 168 193 216 251 358 26 62 74 100 126 134 133 137 138 134 141 143 214 258 266 284 285 287 299 301 300 303 304 315 334 328 329 343 342 343 343 335
160 164 158 158 155 155 155 158 161 161 163 166 167 163 163 169 159 146 152 152 151 150 153 156 156 155 154 152 148 151 153 153 154 152 150 153 152 155 153 163 153 154 155 158 168 169 174 178 174 184 206 227 255 335 265 98 129 183 206 158 148 145 135 119 191 255 255 258 268 278 292 296 291 292 296 308 312 318 324 329 336 342 346 346 347
145 150 157 154 150 150 154 156 162 165 164 168 172 169 171 171 154 156 154 151 150 152 156 159 157 159 158 153 148 153 155 157 156 156 155 159 159 163 160 160 164 161 162 163 169 177 181 180 187 192 199 209 203 212 247 278 306 178 211 226 189 170 158 191 225 257 265 277 279 286 288 285 279 281 325 335 314 306 312 315 330 340 343 339 341
161 156 146 144 148 150 154 155 158 166 165 169 173 175 162 140 151 151 152 152 154 156 156 157 160 157 154 155 152 157 155 159 160 156 155 159 161 161 159 163 169 166 166 170 173 180 183 186 192 196 198 194 199 211 235 262 244 233 248 231 204 122 117 13 313 264 273 269 271 261 257 260 282 317 310 292 286 302 311 325 329 329 320 318 315
144 149 153 144 151 154 154 157 161 164 167 169 171 160 148 148 150 150 149 150 153 158 159 161 158 158 157 157 153 151 153 160 166 158 155 157 165 166 166 175 177 175 171 179 180 185 187 189 191 186 175 178 211 223 233 224 220 207 218 206 217 184 196 205 229 231 235 264 276 281 290 348 13 340 312 309 299 299 283 297 304 314 309 310 303
145 154 153 154 153 157 161 161 163 164 166 169 165 150 149 151 152 152 153 154 158 159 156 154 152 146 149 155 155 161 163 161 162 166 169 168 167 174 180 183 193 175 178 175 180 187 192 195 181 172 167 187 209 228 233 204 203 191 188 193 209 219 213 213 234 287 311 27 33 36 356 334 8 330 315 310 306 317 315 299 296 299 313 317 327
139 141 148 146 155 154 159 162 160 163 166 166 161 154 155 156 154 155 154 154 152 152 152 156 158 159 161 158 157 159 161 162 162 164 155 139 130 177 179 174 183 187 192 192 178 188 193 181 180 194 181 176 196 217 209 184 196 195 204 205 198 180 185 197 183 123 113 62 60 346 285 265 286 295 292 295 289 293 296 305 297 297 300 298 309
146 141 146 153 156 156 153 156 160 164 166 162 158 154 153 154 155 158 160 155 153 155 157 159 162 160 158 156 155 157 165 167 166 159 158 161 147 92 107 173 184 185 193 202 207 210 187 183 180 189 216 229 240 120 172 190 191 194 198 204 201 198 196 194 164 112 39 79 279 275 279 276 261 261 271 268 273 281 279 284 285 291 279 284 286